www.pogodaiklimat.ru
ПОГОДА в Рикитее
Время
(UTC), дата
10 11.02
11 11.02
12 11.02
14 11.02
13 11.02
15 11.02
16 11.02
17 11.02
18 11.02
20 11.02
19 11.02
21 11.02
22 11.02
23 11.02
00 12.02
02 12.02
01 12.02
03 12.02
04 12.02
05 12.02
06 12.02
08 12.02
07 12.02
09 12.02
10 12.02
11 12.02
12 12.02
14 12.02
13 12.02
15 12.02
16 12.02
17 12.02
18 12.02
20 12.02
19 12.02
21 12.02
22 12.02
23 12.02
00 13.02
02 13.02
01 13.02
03 13.02
04 13.02
05 13.02
06 13.02
08 13.02
07 13.02
09 13.02
10 13.02
11 13.02
12 13.02
14 13.02
13 13.02
15 13.02
16 13.02
17 13.02
18 13.02
20 13.02
19 13.02
21 13.02
22 13.02
23 13.02
00 14.02
02 14.02
01 14.02
03 14.02
04 14.02
05 14.02
06 14.02
08 14.02
07 14.02
09 14.02
10 14.02
11 14.02
12 14.02
14 14.02
13 14.02
15 14.02
16 14.02
17 14.02
18 14.02
20 14.02
19 14.02
21 14.02
22 14.02
23 14.02
00 15.02
02 15.02
01 15.02
03 15.02
04 15.02
05 15.02
06 15.02
08 15.02
07 15.02
09 15.02
10 15.02
11 15.02
12 15.02
14 15.02
13 15.02
15 15.02
16 15.02
17 15.02
18 15.02
20 15.02
19 15.02
21 15.02
22 15.02
23 15.02
00 16.02
02 16.02
01 16.02
03 16.02
04 16.02
05 16.02
06 16.02
08 16.02
07 16.02
09 16.02
10 16.02
11 16.02
12 16.02
14 16.02
13 16.02
15 16.02
16 16.02
17 16.02
18 16.02
20 16.02
19 16.02
21 16.02
22 16.02
23 16.02
00 17.02
02 17.02
01 17.02
03 17.02
04 17.02
05 17.02
06 17.02
08 17.02
07 17.02
09 17.02
10 17.02
11 17.02
12 17.02
14 17.02
13 17.02
15 17.02
16 17.02
17 17.02
18 17.02
20 17.02
19 17.02
21 17.02
22 17.02
23 17.02
00 18.02
02 18.02
01 18.02
03 18.02
04 18.02
05 18.02
06 18.02
08 18.02
07 18.02
09 18.02
10 18.02
Ветер
(напр.,м/с)
Видим. Явления Облачность Т
(С)
Тd
(С)
f
(%)
Тe
(С)
Тes
(С)
Комфортность P
(гПа)
Po
(гПа)
Тmin
(С)
Tmax
(С)
R
(мм)
R24
(мм)
S
(см)
СВ 1 н/о н/о +25.1 +21.8 82 +32 +32 очень
душно
1018.2 1008.0 0.6
СВ 1 н/о н/о +25.0 +21.7 82 +32 +32 очень
душно
1017.5 1007.3 0.6
СВ 2
{8}
н/о н/о +25.0 +21.3 80 +32 +32 очень
душно
1017.3 1007.1 +29.9 +29.9
В 2 н/о н/о +25.0 +21.7 82 +32 +32 очень
душно
1017.5 1007.3 0.0
В 2 н/о н/о +24.9 +22.0 84 +32 +32 очень
душно
1017.3 1007.1 0.0
В 3
{9}
30 км 4/4 400 м
[Cu med, cong]
+25.0 +21.7 82 +32 +32 очень
душно
1018.2 1008.0
В 2 н/о 3/3 300 м
[Cu med, cong]
+26.0 +21.9 78 +33 +35 очень
душно
1018.9 1008.7
В 3 н/о 3/3 300 м
[Cu med, cong]
+26.7 +22.1 76 +35 +39 очень
душно
1019.2 1009.0
В 4
{11}
30 км 4/3 480 м
[Cu med, cong Ci]
+28.3 +22.8 72 +38 +43 очень
душно
1019.3 1009.2
В 2 н/о 8/3 300 м
[Cu med, cong Ci]
+28.9 +23.6 73 +39 +51 опасность
солнечного
удара
1019.1 1009.0
В 1 н/о 5/5 300 м
[Cu med, cong]
+28.4 +23.1 73 +38 +48 очень
душно
1019.4 1009.3
В 2
{9}
30 км 8/3 480 м
[Cu med, cong Cs]
+28.1 +22.6 72 +37 +51 опасность
солнечного
удара
1018.7 1008.6
В 2 н/о 8/1 300 м
[Cu hum Cs]
+27.5 +22.2 73 +36 +52 опасность
солнечного
удара
1018.1 1008.0
В 1 н/о 9/9 300 м
[Cu med, cong]
+27.4 +22.4 74 +36 +38 очень
душно
1017.8 1007.7
В 4
{9}
30 км 9/6 480 м
[Cu med, cong Cs]
+27.2 +22.4 75 +36 +38 очень
душно
1017.5 1007.4 +24.9
В 3 н/о 8/4 300 м
[Cu hum Cs]
+26.1 +22.0 78 +34 +35 очень
душно
1017.1 1006.9
В 3 н/о 9/6 300 м
[Cu med, cong Cs]
+26.7 +22.3 77 +35 +37 очень
душно
1017.0 1006.9
В 3
{10}
н/о н/о +25.8 +21.9 79 +33 +33 очень
душно
1017.3 1007.1
В 3 н/о н/о +25.5 +22.0 81 +33 +33 очень
душно
1017.8 1007.6
В 2 н/о н/о +25.5 +22.0 81 +33 +33 очень
душно
1018.2 1008.0
В 6
{9}
н/о н/о +25.3 +21.8 81 +33 +33 очень
душно
1018.4 1008.2 0.2 0.2
СВ 2 н/о н/о +25.4 +22.1 82 +33 +33 очень
душно
1018.3 1008.1 0.2
В 2 н/о н/о +25.3 +22.2 83 +33 +33 очень
душно
1018.4 1008.2 0.2
В 2
{9}
н/о н/о +25.1 +21.6 81 +32 +32 очень
душно
1017.7 1007.5 0.2
В 1 н/о н/о +25.0 +21.7 82 +32 +32 очень
душно
1017.1 1006.9 0.2
В 2 н/о н/о +25.0 +21.7 82 +32 +32 очень
душно
1016.5 1006.3 0.2
В 4
{8}
н/о н/о +25.1 +21.8 82 +32 +32 очень
душно
1016.1 1005.9 +29.2 +29.2
В 4 н/о н/о +25.0 +21.9 83 +32 +32 очень
душно
1016.3 1006.1 0.2
В 2 н/о н/о +25.0 +21.5 81 +32 +32 очень
душно
1016.1 1005.9 0.2
В 2
{11}
30 км 3/3 600 м
[Cu med, cong]
+25.1 +21.8 82 +32 +32 очень
душно
1017.0 1006.8
В 3 н/о 4/4 300 м
[Cu med, cong]
+25.7 +22.0 80 +33 +35 очень
душно
1017.7 1007.5
В 4 н/о 4/4 300 м
[Cu med, cong]
+26.3 +22.2 78 +34 +37 очень
душно
1018.0 1007.8
ЮВ 7
{13}
30 км 4/4 480 м
[Cu med, cong]
+26.9 +22.5 77 +35 +37 очень
душно
1018.1 1008.0
В 3 н/о 9/4 300 м
[Cu med, cong Ci sp]
+27.6 +22.1 72 +36 +45 очень
душно
1017.5 1007.4
В 4 н/о 4/4 300 м
[Cu med, cong]
+27.1 +22.5 76 +36 +43 очень
душно
1017.8 1007.7
В 3
{10}
30 км 9/4 480 м
[Cu med, cong Ci sp]
+28.2 +22.7 72 +37 +47 очень
душно
1017.1 1007.0
В 2 20 км слаб. ливневой дождь 9/9 300 м
[Cu med, cong]
+27.6 +22.5 74 +36 +38 очень
душно
1016.6 1006.5 0.0
СВ 1 н/о в посл. час ливневой дождь 9/5 300 м
[Cu med, cong Ci sp]
+26.0 +22.9 83 +35 +43 очень
душно
1016.1 1005.9 1
В 5
{10}
40 км {ливн. осадки, дождь} 9/5 480 м
[Cu med, cong Ci sp]
+26.7 +22.5 78 +35 +38 очень
душно
1015.9 1005.8 +24.3 1 1
В 3 н/о 9/5 300 м
[Cu med, cong Ci sp]
+25.9 +21.8 78 +33 +34 очень
душно
1015.8 1005.6
В 2 н/о 9/5 300 м
[Cu med, cong Ci sp]
+26.5 +22.1 77 +34 +37 очень
душно
1015.9 1005.8
В 2
{10}
н/о н/о +25.7 +21.4 77 +33 +33 очень
душно
1015.9 1005.7 1.2
В 3 н/о н/о +25.5 +21.8 80 +33 +33 очень
душно
1016.5 1006.3 1.2
В 2 н/о н/о +25.2 +21.7 81 +32 +32 очень
душно
1016.5 1006.3 1.2
В 4
{11}
н/о н/о +24.9 +21.2 80 +31 +31 очень
душно
1016.8 1006.6 1.0
В 3 н/о н/о +25.1 +21.4 80 +32 +32 очень
душно
1017.0 1006.8 1.0
ЮВ 3 н/о н/о +25.1 +21.6 81 +32 +32 очень
душно
1017.0 1006.8 1.0
ЮВ 3
{11}
н/о н/о +25.1 +21.6 81 +32 +32 очень
душно
1016.4 1006.2 1.0
ЮВ 3 н/о н/о +25.0 +21.7 82 +32 +32 очень
душно
1015.9 1005.7 1.0
В 2 н/о н/о +24.7 +21.2 81 +31 +31 очень
душно
1014.9 1004.7 1.0
В 5
{10}
н/о н/о +24.7 +21.4 82 +31 +31 очень
душно
1015.0 1004.8 +28.6 +28.6
ЮВ 3 н/о н/о +24.8 +21.5 82 +32 +32 очень
душно
1014.9 1004.7 1.0
В 2 н/о н/о +24.7 +21.0 80 +31 +31 очень
душно
1014.9 1004.7 1.0
В 3
{11}
40 км 4/4 480 м
[Cu med, cong]
+24.5 +21.2 82 +31 +31 очень
душно
1015.4 1005.2
ЮВ 2 н/о 4/1 300 м
[Cu med, cong Ci fib]
+25.6 +21.9 80 +33 +35 очень
душно
1016.0 1005.8
ЮВ 3 н/о осадки на расстоянии 9/6 300 м
[Cu med, cong Ci fib]
+25.9 +21.8 78 +33 +35 очень
душно
1016.3 1006.1
ЮВ 7
{11}
40 км 9/3 480 м
[Cu med, cong Ci sp]
+26.6 +22.2 77 +35 +37 очень
душно
1016.3 1006.2
В 2 н/о 9/4 300 м
[Cu med, cong Ci sp]
+26.8 +22.2 76 +35 +45 очень
душно
1015.9 1005.8
ЮВ 3 н/о 9/9 300 м
[Cu med, cong]
+27.0 +22.2 75 +35 +37 очень
душно
1016.2 1006.1
В 1
{9}
40 км 9/3 480 м
[Cu med, cong Cs]
+27.4 +22.4 74 +36 +50 очень
душно
1015.5 1005.4
В 2 н/о 9/3 300 м
[Cu med, cong Cs]
+28.2 +22.4 71 +37 +50 очень
душно
1014.7 1004.6
В 2 н/о 6/3 300 м
[Cu med, cong Ci sp]
+28.5 +22.3 69 +37 +49 очень
душно
1014.3 1004.2
В 2
{6}
40 км 6/3 480 м
[Cu med, cong Ci sp]
+28.1 +22.1 70 +37 +44 очень
душно
1014.0 1003.9 +24.4
С 1 40 км в посл. час ливневой дождь 9/4 300 м
[Cu med, cong Ci sp]
+25.2 +20.7 76 +31 +33 очень
душно
1013.7 1003.5 0.2
В 1 н/о 9/3 300 м
[Cu med, cong Ci sp]
+26.8 +22.0 75 +35 +39 очень
душно
1013.7 1003.6
В 2
{7}
н/о н/о +25.6 +22.1 81 +33 +33 очень
душно
1014.0 1003.9 0.2 0.2
ЮВ 2 н/о н/о +24.0 +22.3 90 +31 +31 очень
душно
1015.0 1004.8 4 4.1
В 2 н/о н/о +24.2 +21.7 86 +31 +31 очень
душно
1015.6 1005.4 4.1
С 2
{6}
н/о н/о +23.8 +21.9 89 +31 +31 очень
душно
1015.9 1005.7 5 4.7
ЮВ 2 н/о н/о +24.1 +22.2 89 +31 +31 очень
душно
1015.9 1005.7 4.7
С 1 н/о н/о +24.0 +22.1 89 +31 +31 очень
душно
1016.1 1005.9 4.7
В 1
{8}
н/о н/о +22.8 +21.6 93 +30 +30 очень
душно
1015.8 1005.5 5 9.2
С 1 н/о н/о +23.0 +22.0 94 +31 +31 очень
душно
1014.7 1004.5 0.2 9.4
С 1 н/о н/о +23.8 +22.4 92 +31 +31 очень
душно
1014.0 1003.8 9.4
С 2
{5}
н/о н/о +23.8 +21.9 89 +31 +31 очень
душно
1014.1 1003.9 +29.1 +29.1 0.2
С 1 н/о н/о +22.5 +21.3 93 +30 +30 очень
душно
1014.7 1004.4 11.8
С 1 н/о н/о +22.9 +21.9 94 +31 +31 очень
душно
1014.2 1004.0 2 11.8
С 3
{5}
22 км осадки на расстоянии 6/6 400 м
[Cu Sc Ci fib]
+22.9 +21.4 91 +30 +31 очень
душно
1015.3 1005.0 2
С 2 н/о слаб. дождь 9/9 300 м
[Cu med, cong]
+21.3 1016.1 1005.8
С 1 н/о в посл. час дождь 9/9 300 м
[Cu med, cong]
+21.6 1016.6 1006.3
С 2
{4}
30 км {дождь} 4/4 480 м
[Cu med, cong]
+23.3 +20.8 86 +31 +38 очень
душно
1016.3 1006.0 5
З 2 н/о слаб. дождь 10/10 300 м
[Cu med, cong]
+21.9 1016.6 1006.3
С 2 н/о 5/5 300 м
[Cu Sc]
+25.2 1016.5
Ю 2
{4}
22 км гроза без осадков {ливн. осадки} 10/10 300 м
[Cb cap]
+23.3 +22.5 95 +32 +32 очень
душно
1016.2 1006.0 16 32.7
С 1 н/о н/о +23.2 +21.5 90 +31 +31 очень
душно
1015.4 1005.2 1 34.0
С 1 н/о гроза без осадков 9/9 300 м
[Cb cap]
+25.1 1014.9 1004.7
СВ 2
{4}
25 км в посл. час гроза {ливн. осадки} 6/6 300 м
[Cb cap]
+26.1 +22.2 79 +34 +39 очень
душно
1014.2 1004.1 +21.2 1 34
С 2 н/о в посл. час ливневой дождь 8/6 300 м
[Cb cap Ci fib]
+22.6 1014.5 1004.2
С 1 12 км ливневой дождь 8/8 300 м
[Cb cap]
+25.3 1014.4 1004.2
С 2
{5}
н/о н/о +24.0 +22.1 89 +31 +31 очень
душно
1015.0 1004.8 13 47.0
С 2 н/о н/о +23.2 +19.4 79 +30 +30 очень
душно
1015.4 1005.1 43.1
С 1 н/о н/о +24.2 +22.1 88 +31 +31 очень
душно
1015.6 1005.4 43.1
С 2
{5}
н/о н/о +24.3 +21.8 86 +31 +31 очень
душно
1015.8 1005.6 42.5
С 1 н/о н/о +24.6 +22.1 86 +32 +32 очень
душно
1016.2 1006.0 42.5
С 1 н/о н/о +24.3 +21.6 85 +31 +31 очень
душно
1016.0 1005.8 42.5
С 2
{6}
н/о н/о +24.7 +22.0 85 +32 +32 очень
душно
1015.7 1005.5 38.0
СВ 1 н/о н/о +24.8 +22.1 85 +32 +32 очень
душно
1015.1 1004.9 37.8
В 2 н/о н/о +24.7 +22.0 85 +32 +32 очень
душно
1014.2 1004.0 37.8
В 6
{9}
н/о н/о +24.7 +22.0 85 +32 +32 очень
душно
1014.2 1004.0 +26.9 +26.9
С 2 н/о н/о +23.4 +19.1 77 +30 +30 очень
душно
1015.6 1005.3 35.4
С 1 н/о н/о +24.5 +21.0 81 +31 +31 очень
душно
1014.4 1004.2 35.4
С 5
{21}
3000 м 10/10 240 м
[Cb cap]
+20.0 +19.5 97 +23 +23 комфорт 1016.7 1006.3 28 63.2
СЗ 3 н/о гроза без осадков 10/10 200 м
[Cb cap]
+20.6 1016.3 1005.9
С 1 н/о н/о +20.1 +18.8 92 +25 +25 комфорт 1017.3 1006.9 0.8 61.4
Ю 3
{7}
н/о {гроза, дождь} н/о +21.9 +21.6 98 +28 +28 душно 1017.2 1006.9 4 62.8
С 2 н/о гроза без осадков 10/8 200 м
[Cb cap Ac As]
+22.4 1016.6 1006.3
С 1 н/о гроза, ливневой дождь 10/8 200 м
[Cb cap Ac As]
+21.2 1017.2 1006.8
В 2
{6}
30 км в посл. час гроза {дождь} 6/4 400 м
[Cu Sc Ci ing]
+25.8 +22.7 83 +34 +46 очень
душно
1015.6 1005.4 2
В 2 н/о гроза без осадков 8/6 200 м
[Cb cap Ci ing]
+26.3 1015.0 1004.9
ЮВ 3 н/о гроза, ливневой дождь 10/10 200 м
[Cb cap]
+22.1 1015.9 1005.6
ЮЗ 2
{7}
н/о {гроза, дождь} н/о +21.0 +20.0 94 +27 +27 душно 1014.4 1004.1 +19.3 12
ЮВ 4 н/о н/о +22.7 +20.0 85 +29 +29 очень
душно
1013.8 1003.5 0.2 47.3
Ю 2 н/о гроза, ливневой дождь 10/10 200 м
[Cb cap]
+22.1 1014.2 1003.9
В 4
{12}
н/о {гроза} н/о +24.0 +21.9 88 +31 +31 очень
душно
1014.3 1004.1 1 47.3
С 2 н/о н/о +23.9 +21.4 86 +30 +30 очень
душно
1014.8 1004.6 47.3
С 2 н/о н/о +24.5 +22.7 90 +32 +32 очень
душно
1015.6 1005.4 47.3
С 3
{8}
н/о н/о +24.9 +22.4 86 +33 +33 очень
душно
1015.8 1005.6 47.3
С 2 н/о н/о +24.9 +22.4 86 +33 +33 очень
душно
1015.5 1005.3 47.3
В 2 н/о н/о +25.1 +22.2 84 +33 +33 очень
душно
1015.8 1005.6 47.3
С 3
{10}
н/о н/о +25.1 +22.8 87 +33 +33 очень
душно
1015.0 1004.8 47.3
С 2 н/о н/о +25.1 +22.6 86 +33 +33 очень
душно
1014.3 1004.1 47.3
С 2 н/о н/о +23.2 +22.2 94 +32 +32 очень
душно
1013.7 1003.5 3 50.2
С 4
{11}
н/о н/о +22.9 +21.5 92 +31 +31 очень
душно
1013.7 1003.5 +26.5 +26.5 3
С 2 н/о н/о +22.6 +21.6 94 +30 +30 очень
душно
1014.6 1004.3 4 54.8
С 3 н/о н/о +23.2 +20.9 87 +31 +31 очень
душно
1013.8 1003.6 0.2 50.8
С 2
{6}
20 км гроза без осадков 9/9 240 м
[Cb cap]
+23.8 +22.8 94 +31 +31 очень
душно
1014.8 1004.6 5
С 3 н/о гроза, ливневой дождь 10/10 200 м
[Cb cap]
+21.9 +21.1 95 +28 +28 душно 1015.2 1004.9 23
С 2 8000 м гроза, ливневой дождь 10/10 200 м
[Cb cap]
+22.5 +21.1 92 +30 +30 очень
душно
1016.1 1005.8 0.4
С 2
{8}
15 км гроза без осадков 10/5 240 м
[Cb cap As trans]
+23.9 +23.2 96 +32 +34 очень
душно
1015.9 1005.7 26
С 2 н/о гроза без осадков 9/4 300 м
[Cb cap As trans]
+23.6 +21.1 86 +30 +36 очень
душно
1015.5 1005.3
С 2 н/о гроза без осадков 9/9 200 м
[Cb cap]
+22.5 +21.3 93 +30 +31 очень
душно
1016.7 1006.4 4
С 4
{8}
20 км в посл. час гроза {ливн. осадки} 9/4 400 м
[Cb cap As trans]
+25.5 +23.0 86 +34 +39 очень
душно
1015.6 1005.4 4
С 2 н/о 10/3 300 м
[Cu Sc As trans]
+24.6 +22.3 87 +32 +38 очень
душно
1014.9 1004.7
С 2 н/о 10/6 300 м
[Cu Sc As op]
+24.2 +21.3 84 +31 +32 очень
душно
1015.1 1004.9
СЗ 2
{7}
20 км гроза без осадков {ливн. осадки} 9/9 240 м
[Cb cap]
+22.7 +21.2 91 +30 +31 очень
душно
1014.8 1004.5 +21.0 0.2 39
ЮВ 2 н/о гроза без осадков 10/3 200 м
[Cb cap As op]
+23.5 +20.6 84 +29 +30 душно 1013.3 1003.1 0.0
С 2 н/о гроза, ливневой дождь 9/9 200 м
[Cb cap]
+21.9 +20.7 93 +28 +29 душно 1014.5 1004.2 0.2
В 3
{9}
н/о н/о +24.3 +21.4 84 +31 +31 очень
душно
1014.3 1004.1 0.2 38.2
В 2 н/о н/о +24.6 +22.3 87 +32 +32 очень
душно
1014.7 1004.5 38.2
ЮВ 2 н/о н/о +24.9 +22.8 88 +33 +33 очень
душно
1015.1 1004.9 38.2
В 3
{8}
н/о н/о +24.8 +22.5 87 +32 +32 очень
душно
1015.2 1005.0 38.2
С 1 н/о н/о +24.9 +22.8 88 +33 +33 очень
душно
1015.3 1005.1 38.2
С 1 н/о н/о +24.8 +22.7 88 +33 +33 очень
душно
1015.4 1005.2 38.2
С 2
{5}
н/о н/о +24.9 +22.6 87 +33 +33 очень
душно
1014.6 1004.4 38.2
С 1 н/о н/о +24.8 +22.5 87 +32 +32 очень
душно
1013.8 1003.6 38.2
С 1 н/о н/о +24.8 +22.5 87 +32 +32 очень
душно
1013.1 1002.9 35.3
СВ 2
{7}
н/о н/о +24.8 +22.5 87 +32 +32 очень
душно
1013.4 1003.2 +25.5 +25.5
В 1 н/о н/о +24.7 +22.0 85 +32 +32 очень
душно
1013.9 1003.7 30.7
В 1 н/о н/о +24.7 +22.4 87 +32 +32 очень
душно
1013.7 1003.5 34.7
В 3
{8}
20 км 8/3 400 м
[Cu med, cong Ci sp]
+24.8 +22.5 87 +32 +33 очень
душно
1014.4 1004.2
В 2 н/о 6/4 300 м
[Cu med, cong Ci fib]
+25.5 +22.8 85 +34 +35 очень
душно
1014.8 1004.6
В 2 н/о 6/1 300 м
[Cu hum Ac lent Ci fib]
+26.7 +22.8 79 +35 +40 очень
душно
1015.1 1005.0
СВ 2
{9}
25 км 8/5 400 м
[Cu Sc Ac lent]
+27.1 +23.6 81 +37 +40 очень
душно
1015.8 1005.7
В 1 н/о 9/5 300 м
[Cu Sc Ci]
+27.6 +23.2 77 +37 +47 очень
душно
1015.7 1005.6
СВ 1 н/о 9/9 300 м
[Cu Sc]
+27.9 +23.7 78 +38 +40 очень
душно
1015.8 1005.7
В 2
{5}
30 км 9/9 480 м
[Cu Sc]
+28.7 +24.3 77 +40 +42 очень
душно
1015.2 1005.2
СВ 1 н/о 9/9 300 м
[Cu Sc]
+27.7 +23.9 80 +38 +41 очень
душно
1015.1 1005.0
С 1 н/о 9/9 300 м
[Cu Sc]
+26.8 +22.6 78 +35 +37 очень
душно
1014.6 1004.5
СВ 1
{5}
30 км 9/5 400 м
[Cu Sc Cs]
+27.7 +23.7 79 +38 +44 очень
душно
1014.3 1004.2 +21.7 0.2
С 1 н/о 8/3 300 м
[Cu Sc Cs]
+25.9 +23.2 85 +35 +36 очень
душно
1014.0 1003.9
С 1 н/о 9/5 300 м
[Cu Sc Cs]
+26.7 +23.2 81 +36 +39 очень
душно
1013.8 1003.7
С 2
{5}
н/о н/о +25.3 +23.0 87 +34 +34 очень
душно
1014.7 1004.5
С 1 н/о н/о +25.0 +22.7 87 +33 +33 очень
душно
1015.1 1004.9
С 1 н/о н/о +25.0 +22.7 87 +33 +33 очень
душно
1015.6 1005.4
С 2
{5}
н/о н/о +25.0 +22.9 88 +33 +33 очень
душно
1016.0 1005.8
С 1 н/о н/о +24.9 +22.6 87 +33 +33 очень
душно
1016.4 1006.2
С 1 н/о н/о +25.0 +22.9 88 +33 +33 очень
душно
1016.5 1006.3
С 2
{5}
н/о н/о +24.8 +22.7 88 +33 +33 очень
душно
1016.0 1005.8
С 1 н/о н/о +24.9 +22.6 87 +33 +33 очень
душно
1015.4 1005.2
Местоположение метеостанции Рикитея (Французская Полинезия): широта -23.13 долгота -134.90 высота над уровнем моря 89 м.
В архиве по умолчанию представлена погода в Рикитее за последнюю неделю. Архивные данные за месяц целиком и за предыдущие месяцы, начиная с января 2011 года, Вы можете получить, выбрав интересующий диапазон дат из раскрывающегося списка и нажав кнопку "Найти!".
*Определитесь, кто Вы:
Внимание! Время в таблицах - всемирное. Для получения местного времени необходимо прибавить поправку, которая равна -10 ч.
Смотрите также архив погоды в соседних городах и на ближайших метеорологических станциях:
Партнеры нашего сайта:      
Пояснения к столбцам:
  • Ветер - указаны скорость ветра в м/с - средняя за 10 мин, порывы в срок и между сроками (в фигурных скобках) и направление, откуда дует ветер: С - северный,
  • СВ - северо-восточный, В - восточный, ЮВ - юго-восточный, Ю - южный, ЮЗ - юго-западный, З - западный, СЗ - северо-западный.
  • Видимость - горизонтальная дальность видимости в метрах или километрах. При видимости от 1 до 10 км при отсутствии осадков обычно наблюдается дымка, при ухудшении видимости до 1 км и менее - туман. В сухую погоду видимость может ухудшаться дымом, пылью или мглою.
  • Явления - указаны атмосферные явления, наблюдавшиеся в срок или в последний час перед сроком; фигурными скобками обозначены явления, наблюдавшиеся между сроками (за 1-3 часа до срока); квадратными скобками обозначены град или гололедные отложения с указанием их диаметра в мм.
  • Облачность - указаны через наклонную черту общая и нижняя облачность в баллах и высота нижней границы облаков в метрах; квадратными скобками обозначены формы облаков: Ci - перистые, Cs - перисто-слоистые, Cc - перисто-кучевые, Ac - высококучевые, As - высокослоистые, Sc - слоисто-кучевые, Ns - слоисто-дождевые, Cu - кучевые, Cb - кучево-дождевые. Подробнее классификацию облаков см. в Атласе облаков (PDF).
  • T - Температура воздуха - температура, измеренная на высоте 2 м над землей.
  • Td - Температура точки росы - температура, при понижении до которой содержащийся в воздухе водяной пар достигнет насыщения.
  • f - Относительная влажность воздуха - влажноcть воздуха, измеренная на высоте 2 м над землей.
  • Te - Эффективная температура - температура, которую ощущает одетый по сезону человек в тени. Характеристика душности погоды. При расчете учитывается влияние влажности воздуха и скорости ветра на теплоощущения человека.
  • Tes - Эффективная температура на солнце - температура, которую ощущает человек, с поправкой на солнечный нагрев. Характеристика знойности погоды. Зависит от высоты солнца над горизонтом, облачности и скорости ветра. Ночью, в пасмурную погоду, а также при ветре 12 м/с и более поправка равна нулю.
  • P - Атмосферное давление - приведенное к уровню моря атмосферное давление.
  • Po - Атмосферное давление - измеренное на уровне метеостанции атмосферное давление.
  • Tmin - Минимальная температура - минимум температуры воздуха на высоте 2 м над землей.
  • Tmax - Максимальная температура - максимум температуры воздуха на высоте 2 м над землей.
  • R - Количество осадков - Количество выпавших осадков за период времени, мм. При наведении курсора мыши на число - период времени, за который выпало указанное количество осадков.
  • R24 - Количество осадков - Количество выпавших осадков за 24 часа, мм.
  • S - Снежный покров - Высота снежного покрова, см. При наведении курсора мыши на число - состояние снежного покрова и степень покрытия местности в баллах.